MFX888 UZTT-USSS

Flight info

Callsign MFX888
Flight time N/A
Altitude 38000
Route NIMAG Z632 GENDI M168 DZG L145 LANOR R482 PESAM
Aircraft A20N/M-VGDW/C

Departure

Time 2026-04-26 09:59
Airport Tashkent International Airport (UZTT)

Arrival

Time N/A
Airport Koltsovo Airport (USSS)
Time Latitude Longitude Altitude Speed Heading
2026-04-26 09:57 41.25792 69.29399 1404 ft 37 kts 78°
2026-04-26 09:57 41.25845 69.29726 1405 ft 36 kts 77°
2026-04-26 09:58 41.25889 69.30047 1401 ft 34 kts 92°
2026-04-26 09:58 41.25912 69.30343 1410 ft 22 kts 54°
2026-04-26 09:58 41.26046 69.30375 1404 ft 20 kts 343°
2026-04-26 09:58 41.26078 69.30226 1412 ft 21 kts 262°
2026-04-26 09:59 41.26027 69.29760 1403 ft 86 kts 262°
2026-04-26 09:59 41.25903 69.28628 1402 ft 160 kts 262°
2026-04-26 09:59 41.25699 69.27024 1780 ft 181 kts 258°
2026-04-26 09:59 41.25408 69.25428 2720 ft 176 kts 254°
2026-04-26 10:00 41.25013 69.23909 3624 ft 171 kts 248°
2026-04-26 10:00 41.24620 69.22383 4445 ft 175 kts 257°
2026-04-26 10:00 41.24412 69.20782 5132 ft 183 kts 263°
2026-04-26 10:00 41.24308 69.19030 5670 ft 197 kts 265°
2026-04-26 10:01 41.24201 69.17117 6117 ft 219 kts 266°
2026-04-26 10:01 41.24098 69.15013 6600 ft 236 kts 266°
2026-04-26 10:01 41.24007 69.12782 7173 ft 250 kts 267°
2026-04-26 10:01 41.23933 69.10398 7808 ft 262 kts 268°
2026-04-26 10:02 41.23880 69.07940 8496 ft 270 kts 269°
2026-04-26 10:02 41.24254 69.05546 9329 ft 268 kts 301°
2026-04-26 10:02 41.25650 69.03969 10172 ft 267 kts 341°
2026-04-26 10:02 41.27484 69.03841 10910 ft 269 kts 13°
2026-04-26 10:03 41.29144 69.05020 11560 ft 276 kts 33°
2026-04-26 10:03 41.30743 69.06558 12046 ft 290 kts 36°
2026-04-26 10:03 41.32388 69.08226 12564 ft 303 kts 38°
2026-04-26 10:03 41.34023 69.10053 12985 ft 320 kts 41°
2026-04-26 10:04 41.35793 69.11997 13302 ft 339 kts 36°
2026-04-26 10:04 41.37819 69.13761 13619 ft 356 kts 28°
2026-04-26 10:04 41.40112 69.15157 14129 ft 366 kts 20°
2026-04-26 10:04 41.42589 69.16151 14557 ft 379 kts 12°
2026-04-26 10:05 41.45239 69.16731 14839 ft 394 kts
2026-04-26 10:05 41.48025 69.16873 15104 ft 408 kts 358°
2026-04-26 10:05 41.50900 69.16551 15367 ft 421 kts 351°
2026-04-26 10:05 41.53801 69.15790 15783 ft 428 kts 347°
2026-04-26 10:06 41.56706 69.14864 16315 ft 431 kts 346°
2026-04-26 10:06 41.59630 69.13904 16837 ft 435 kts 346°
2026-04-26 10:06 41.62584 69.12930 17353 ft 438 kts 346°
2026-04-26 10:06 41.65558 69.11952 17846 ft 441 kts 346°
2026-04-26 10:07 41.68514 69.10981 18302 ft 445 kts 346°
2026-04-26 10:07 41.71534 69.09989 18762 ft 448 kts 346°
2026-04-26 10:07 41.74567 69.08993 19212 ft 451 kts 346°
2026-04-26 10:07 41.77631 69.07985 19676 ft 454 kts 346°
2026-04-26 10:08 41.80710 69.06973 20125 ft 457 kts 346°
2026-04-26 10:08 41.83812 69.05952 20563 ft 460 kts 346°
2026-04-26 10:08 41.86938 69.04922 20963 ft 463 kts 346°
2026-04-26 10:08 41.90081 69.03885 21370 ft 466 kts 346°
2026-04-26 10:09 41.93234 69.02844 21777 ft 468 kts 346°
2026-04-26 10:09 41.96405 69.01790 22179 ft 471 kts 345°
2026-04-26 10:09 41.99580 69.00647 22561 ft 474 kts 344°
2026-04-26 10:09 42.02764 68.99422 22937 ft 476 kts 343°
2026-04-26 10:10 42.05945 68.98159 23297 ft 478 kts 343°
2026-04-26 10:10 42.09141 68.96880 23642 ft 481 kts 343°
2026-04-26 10:10 42.12308 68.95613 23977 ft 483 kts 343°
2026-04-26 10:10 42.15547 68.94324 24297 ft 485 kts 343°
2026-04-26 10:11 42.18803 68.93034 24604 ft 488 kts 343°
2026-04-26 10:11 42.22068 68.91745 24939 ft 489 kts 343°
2026-04-26 10:11 42.25330 68.90458 25347 ft 489 kts 343°
2026-04-26 10:11 42.28590 68.89173 25792 ft 488 kts 343°
2026-04-26 10:12 42.31852 68.87886 26236 ft 486 kts 343°
2026-04-26 10:12 42.35096 68.86604 26666 ft 485 kts 343°
2026-04-26 10:12 42.38335 68.85322 27081 ft 484 kts 343°
2026-04-26 10:12 42.41563 68.84043 27488 ft 484 kts 343°
2026-04-26 10:13 42.44758 68.82641 27881 ft 483 kts 340°
2026-04-26 10:13 42.47906 68.81063 28259 ft 482 kts 339°
2026-04-26 10:13 42.51035 68.79385 28634 ft 481 kts 338°
2026-04-26 10:13 42.54125 68.77684 28998 ft 480 kts 338°
2026-04-26 10:14 42.57225 68.75970 29357 ft 479 kts 338°
2026-04-26 10:14 42.60298 68.74278 29711 ft 478 kts 338°
2026-04-26 10:14 42.63356 68.72608 30066 ft 478 kts 338°
2026-04-26 10:14 42.66443 68.70931 30419 ft 477 kts 338°
2026-04-26 10:15 42.69528 68.69262 30764 ft 476 kts 338°
2026-04-26 10:15 42.72602 68.67602 31097 ft 475 kts 338°
2026-04-26 10:15 42.75673 68.65943 31416 ft 475 kts 338°
2026-04-26 10:15 42.78743 68.64284 31731 ft 474 kts 338°
2026-04-26 10:16 42.81799 68.62630 32036 ft 473 kts 338°
2026-04-26 10:16 42.84864 68.60981 32335 ft 473 kts 338°
2026-04-26 10:16 42.87922 68.59343 32621 ft 472 kts 338°
2026-04-26 10:16 42.90977 68.57709 32912 ft 471 kts 338°
2026-04-26 10:17 42.94030 68.56077 33182 ft 471 kts 338°
2026-04-26 10:17 42.97082 68.54443 33449 ft 470 kts 338°
2026-04-26 10:17 43.00115 68.52816 33706 ft 469 kts 338°
2026-04-26 10:17 43.03123 68.51200 33961 ft 469 kts 338°
2026-04-26 10:18 43.06154 68.49570 34211 ft 468 kts 338°
2026-04-26 10:18 43.09187 68.47936 34437 ft 468 kts 338°
2026-04-26 10:18 43.12210 68.46306 34672 ft 467 kts 338°
2026-04-26 10:18 43.15240 68.44670 34896 ft 467 kts 338°
2026-04-26 10:19 43.18258 68.43039 35116 ft 466 kts 338°
2026-04-26 10:19 43.21272 68.41408 35329 ft 466 kts 338°
2026-04-26 10:19 43.24284 68.39777 35537 ft 465 kts 338°
2026-04-26 10:19 43.27297 68.38143 35737 ft 465 kts 338°
2026-04-26 10:20 43.30347 68.36673 35917 ft 465 kts 345°
2026-04-26 10:20 43.32436 68.36041 36033 ft 465 kts 350°
2026-04-26 10:20 43.36735 68.35294 36274 ft 465 kts 355°
2026-04-26 10:20 43.39958 68.34957 36438 ft 465 kts 356°
2026-04-26 10:21 43.43184 68.34663 36595 ft 465 kts 356°
2026-04-26 10:21 43.46415 68.34350 36745 ft 465 kts 355°
2026-04-26 10:21 43.49605 68.34003 36894 ft 465 kts 355°
2026-04-26 10:21 43.52820 68.33618 37039 ft 465 kts 354°
2026-04-26 10:22 43.56045 68.33205 37164 ft 465 kts 354°
2026-04-26 10:22 43.59270 68.32776 37294 ft 466 kts 354°
2026-04-26 10:22 43.62497 68.32339 37411 ft 466 kts 354°
2026-04-26 10:22 43.65731 68.31898 37524 ft 467 kts 354°
2026-04-26 10:23 43.68968 68.31457 37629 ft 467 kts 354°
2026-04-26 10:23 43.72213 68.31017 37727 ft 468 kts 354°
2026-04-26 10:23 43.75458 68.30577 37860 ft 468 kts 354°
2026-04-26 10:23 43.78700 68.30138 37983 ft 468 kts 354°
2026-04-26 10:24 43.85202 68.29258 38000 ft 470 kts 354°
2026-04-26 10:24 43.91710 68.28376 38000 ft 471 kts 354°
2026-04-26 10:25 43.98203 68.27494 38000 ft 471 kts 354°
2026-04-26 10:25 44.04721 68.26606 38000 ft 468 kts 354°
2026-04-26 10:26 44.11193 68.25723 38000 ft 466 kts 354°
2026-04-26 10:26 44.17653 68.24839 38000 ft 466 kts 354°
2026-04-26 10:27 44.24100 68.23954 38000 ft 465 kts 354°
2026-04-26 10:27 44.30542 68.23069 38000 ft 465 kts 354°
2026-04-26 10:28 44.36984 68.22181 38000 ft 464 kts 354°
2026-04-26 10:28 44.43370 68.21300 38000 ft 464 kts 354°
2026-04-26 10:29 44.49807 68.20410 38000 ft 464 kts 354°
2026-04-26 10:29 44.56233 68.19520 38000 ft 464 kts 354°
2026-04-26 10:30 44.62660 68.18629 38000 ft 464 kts 354°
2026-04-26 10:30 44.69101 68.17734 38000 ft 464 kts 354°
2026-04-26 10:31 44.75486 68.16844 38000 ft 464 kts 354°
2026-04-26 10:31 44.81909 68.15948 38000 ft 464 kts 354°
2026-04-26 10:32 44.88330 68.15049 38000 ft 464 kts 354°
2026-04-26 10:32 44.94765 68.14147 38000 ft 464 kts 354°
2026-04-26 10:33 45.01185 68.13244 38000 ft 464 kts 354°
2026-04-26 10:33 45.07565 68.12345 38000 ft 464 kts 354°
2026-04-26 10:34 45.14026 68.11433 38000 ft 464 kts 354°
2026-04-26 10:34 45.20416 68.10529 38000 ft 464 kts 354°
2026-04-26 10:35 45.26842 68.09618 38001 ft 464 kts 354°
2026-04-26 10:35 45.33278 68.08702 38000 ft 464 kts 354°
2026-04-26 10:36 45.39709 68.07786 38000 ft 464 kts 354°
2026-04-26 10:36 45.46142 68.06868 38000 ft 464 kts 354°
2026-04-26 10:37 45.52566 68.05948 38000 ft 464 kts 354°
2026-04-26 10:37 45.59004 68.05024 38000 ft 464 kts 354°
2026-04-26 10:38 45.65438 68.04099 38000 ft 464 kts 354°
2026-04-26 10:38 45.71832 68.03178 38000 ft 464 kts 354°
2026-04-26 10:39 45.77179 68.02405 38000 ft 464 kts 354°
2026-04-26 10:39 45.84695 68.01317 38000 ft 465 kts 354°
2026-04-26 10:40 45.90051 68.00540 38000 ft 465 kts 354°
2026-04-26 10:40 45.96487 67.99604 38001 ft 465 kts 354°
2026-04-26 10:41 46.02919 67.98666 38000 ft 464 kts 354°
2026-04-26 10:41 46.09336 67.97726 38000 ft 464 kts 354°
2026-04-26 10:42 46.15778 67.96781 38000 ft 464 kts 354°
2026-04-26 10:42 46.22215 67.95834 38000 ft 464 kts 354°
2026-04-26 10:43 46.28631 67.94889 38000 ft 464 kts 354°
2026-04-26 10:43 46.35073 67.93937 38000 ft 464 kts 354°
2026-04-26 10:44 46.41507 67.92984 38000 ft 464 kts 354°
2026-04-26 10:44 46.47926 67.92032 38000 ft 464 kts 354°
2026-04-26 10:45 46.54330 67.91089 38000 ft 465 kts 354°
2026-04-26 10:45 46.60774 67.90361 38000 ft 465 kts 356°
2026-04-26 10:46 46.67247 67.89748 38000 ft 465 kts 356°
2026-04-26 10:46 46.73706 67.89130 38000 ft 465 kts 356°
2026-04-26 10:47 46.80161 67.88490 38000 ft 465 kts 356°
2026-04-26 10:47 46.86584 67.87842 38001 ft 465 kts 356°
2026-04-26 10:48 46.93047 67.87186 38000 ft 465 kts 356°
2026-04-26 10:48 46.99507 67.86529 38000 ft 465 kts 355°
2026-04-26 10:49 47.05953 67.85713 38000 ft 465 kts 354°
2026-04-26 10:49 47.12396 67.84775 38000 ft 465 kts 354°
2026-04-26 10:50 47.17750 67.83990 38000 ft 465 kts 354°
2026-04-26 10:50 47.25230 67.82911 38000 ft 465 kts 354°
2026-04-26 10:51 47.34897 67.81529 38000 ft 465 kts 354°
2026-04-26 10:52 47.41356 67.80605 38000 ft 465 kts 354°
2026-04-26 10:52 47.47795 67.79680 38000 ft 465 kts 354°
2026-04-26 10:53 47.54246 67.78751 38000 ft 465 kts 354°
2026-04-26 10:53 47.60654 67.77826 38000 ft 465 kts 354°
2026-04-26 10:54 47.70345 67.76420 37999 ft 465 kts 353°
2026-04-26 10:54 47.73508 67.75474 38002 ft 464 kts 342°
2026-04-26 10:54 47.76530 67.73819 38001 ft 464 kts 336°
2026-04-26 10:55 47.82351 67.69676 38000 ft 464 kts 333°
2026-04-26 10:55 47.88142 67.65377 38000 ft 465 kts 334°
2026-04-26 10:56 47.93946 67.61254 38000 ft 465 kts 335°
2026-04-26 10:56 47.99818 67.57198 38001 ft 465 kts 335°
2026-04-26 10:57 48.05696 67.53159 38000 ft 465 kts 335°
2026-04-26 10:57 48.11572 67.49107 38000 ft 465 kts 335°
2026-04-26 10:58 48.17441 67.45043 38000 ft 465 kts 335°
2026-04-26 10:58 48.23318 67.40959 38000 ft 465 kts 335°
2026-04-26 10:59 48.29195 67.36865 38000 ft 465 kts 335°
2026-04-26 10:59 48.35063 67.32767 38000 ft 465 kts 335°
2026-04-26 11:00 48.40819 67.28649 38000 ft 465 kts 334°
2026-04-26 11:00 48.46683 67.24284 38000 ft 466 kts 333°
2026-04-26 11:01 48.52497 67.19925 38001 ft 466 kts 333°
2026-04-26 11:01 48.58301 67.15580 38000 ft 466 kts 333°
2026-04-26 11:02 48.64113 67.11228 38000 ft 466 kts 333°
2026-04-26 11:02 48.69927 67.06867 38000 ft 466 kts 333°
2026-04-26 11:03 48.75749 67.02488 38000 ft 466 kts 333°
2026-04-26 11:03 48.81509 66.98144 38000 ft 466 kts 333°
2026-04-26 11:04 48.87337 66.93737 38000 ft 466 kts 333°
2026-04-26 11:04 48.93135 66.89346 38000 ft 465 kts 334°
2026-04-26 11:05 48.99006 66.85197 38000 ft 465 kts 335°
2026-04-26 11:05 49.04937 66.81202 38000 ft 465 kts 336°
2026-04-26 11:06 49.09864 66.77880 38000 ft 466 kts 336°
2026-04-26 11:06 49.16738 66.73194 38000 ft 465 kts 335°
2026-04-26 11:07 49.22645 66.69137 38000 ft 465 kts 335°
2026-04-26 11:07 49.28551 66.65067 38000 ft 465 kts 335°
2026-04-26 11:08 49.34456 66.60988 38000 ft 465 kts 335°
2026-04-26 11:08 49.40312 66.56933 38000 ft 465 kts 335°
2026-04-26 11:09 49.46205 66.52842 38000 ft 465 kts 335°
2026-04-26 11:09 49.52098 66.48740 38000 ft 464 kts 335°
2026-04-26 11:10 49.57989 66.44629 38000 ft 464 kts 335°
2026-04-26 11:10 49.63878 66.40508 38000 ft 464 kts 335°
2026-04-26 11:11 49.69755 66.36385 38000 ft 464 kts 335°
2026-04-26 11:11 49.75611 66.32205 38000 ft 464 kts 334°
2026-04-26 11:12 49.81350 66.27737 38000 ft 464 kts 332°
2026-04-26 11:12 49.87075 66.23155 38000 ft 464 kts 332°
2026-04-26 11:13 49.92820 66.18565 38000 ft 463 kts 333°
2026-04-26 11:13 49.98561 66.13997 38000 ft 463 kts 333°
2026-04-26 11:14 50.04303 66.09428 38000 ft 463 kts 333°
2026-04-26 11:14 50.09077 66.05619 38000 ft 464 kts 333°
2026-04-26 11:15 50.15795 66.00273 38000 ft 464 kts 333°
2026-04-26 11:15 50.21598 65.95882 38000 ft 464 kts 334°
2026-04-26 11:16 50.27388 65.91576 38000 ft 464 kts 334°
2026-04-26 11:16 50.33224 65.87212 38000 ft 463 kts 334°
2026-04-26 11:17 50.39040 65.82834 38000 ft 463 kts 334°
2026-04-26 11:17 50.44815 65.78472 38000 ft 463 kts 334°
2026-04-26 11:18 50.50626 65.74070 38000 ft 463 kts 334°
2026-04-26 11:18 50.56441 65.69654 38000 ft 463 kts 334°
2026-04-26 11:19 50.62248 65.65232 38000 ft 463 kts 334°
2026-04-26 11:19 50.68056 65.60797 38000 ft 464 kts 334°
2026-04-26 11:20 50.72887 65.57098 38000 ft 464 kts 334°
2026-04-26 11:20 50.79626 65.51925 38000 ft 463 kts 334°
2026-04-26 11:21 50.85441 65.47448 38000 ft 463 kts 334°
2026-04-26 11:21 50.91237 65.42972 38000 ft 463 kts 334°
2026-04-26 11:22 50.97001 65.38510 38000 ft 464 kts 334°
2026-04-26 11:22 51.02796 65.34011 38000 ft 464 kts 334°
2026-04-26 11:23 51.08597 65.29494 38000 ft 463 kts 334°
2026-04-26 11:23 51.14355 65.24998 38000 ft 463 kts 333°
2026-04-26 11:24 51.20145 65.20465 38000 ft 463 kts 333°
2026-04-26 11:24 51.25935 65.15918 38000 ft 463 kts 333°
2026-04-26 11:25 51.31725 65.11359 38000 ft 463 kts 333°
2026-04-26 11:25 51.37511 65.06790 38000 ft 463 kts 333°
2026-04-26 11:26 51.43292 65.02213 38000 ft 463 kts 333°
2026-04-26 11:26 51.49050 64.97640 38000 ft 464 kts 333°
2026-04-26 11:27 51.54832 64.93035 38000 ft 464 kts 333°
2026-04-26 11:27 51.59638 64.89198 38000 ft 464 kts 333°
2026-04-26 11:28 51.65424 64.84567 38000 ft 464 kts 333°
2026-04-26 11:28 51.71197 64.79932 38000 ft 464 kts 333°
2026-04-26 11:29 51.76975 64.75304 38000 ft 463 kts 333°
2026-04-26 11:29 51.82766 64.70705 38000 ft 463 kts 333°